K6OUA-11 Weather Reports


Display with metric or nautical units.
time (UTC)temp
F
wind
direction
speed
MPH
gust
MPH
rain 1hr
in
rain 24hr
in
rain mn
in
humidity
%
barometer
mb
20190420021654 63 234 3.0 6.0 0.00 0.00 0.00 68 1006.1
20190420021628 63 240 2.0 4.0 0.00 0.00 0.00 67 1006.0
20190420021353 63 240 2.0 4.0 0.00 0.00 0.00 67 1006.0
20190420021052 63 258 3.0 6.0 0.00 0.00 0.00 67 1006.0
20190420020754 64 243 6.0 6.0 0.00 0.00 0.00 65 1006.0
20190420020633 64 258 6.0 6.0 0.00 0.00 0.00 65 1005.8
20190420020449 64 258 6.0 6.0 0.00 0.00 0.00 65 1005.8
20190420020336 65 263 6.0 7.0 0.00 0.00 0.00 65 1005.8
20190420020149 65 263 6.0 7.0 0.00 0.00 0.00 65 1005.8
20190420020035 65 247 5.0 7.0 0.00 0.00 0.00 64 1005.7
20190420015846 65 247 5.0 7.0 0.00 0.00 0.00 64 1005.7
20190420015412 66 267 2.0 3.0 0.00 0.00 0.00 63 1005.8
20190420015244 66 267 2.0 3.0 0.00 0.00 0.00 63 1005.8
20190420015114 66 247 3.0 4.0 0.00 0.00 0.00 62 1005.7
20190420014943 66 247 3.0 4.0 0.00 0.00 0.00 62 1005.7
20190420014815 66 261 3.0 4.0 0.00 0.00 0.00 61 1005.4
20190420014642 66 261 3.0 4.0 0.00 0.00 0.00 61 1005.4
20190420014516 67 252 3.0 3.0 0.00 0.00 0.00 61 1005.5
20190420014344 67 252 3.0 3.0 0.00 0.00 0.00 61 1005.5
20190420014342 67 252 3.0 3.0 0.00 0.00 0.00 61 1005.5
20190420014040 67 265 2.0 4.0 0.00 0.00 0.00 60 1005.3
20190420013738 67 265 4.0 4.0 0.00 0.00 0.00 60 1005.3
20190420013625 68 229 2.0 3.0 0.00 0.00 0.00 60 1005.4
20190420013437 68 229 2.0 3.0 0.00 0.00 0.00 60 1005.4
20190420013137 68 231 2.0 2.0 0.00 0.00 0.00 59 1005.5
20190420012811 69 225 1.0 1.0 0.00 0.00 0.00 58 1005.6
20190420012534 69 225 1.0 1.0 0.00 0.00 0.00 58 1005.6
20190420012234 69 225 0.0 1.0 0.00 0.00 0.00 58 1005.7
20190420011817 69 225 1.0 3.0 0.00 0.00 0.00 58 1005.7
20190420011631 69 225 1.0 3.0 0.00 0.00 0.00 58 1005.7
20190420011331 70 225 0.0 2.0 0.00 0.00 0.00 58 1005.7
20190420011205 70 225 0.0 3.0 0.00 0.00 0.00 58 1005.7
20190420011028 70 225 0.0 3.0 0.00 0.00 0.00 58 1005.7
20190420010604 70 189 1.0 2.0 0.00 0.00 0.00 58 1005.7
20190420010426 70 189 1.0 2.0 0.00 0.00 0.00 58 1005.7
20190420010322 70 180 0.0 1.0 0.00 0.00 0.00 58 1005.6
20190420010125 70 180 0.0 1.0 0.00 0.00 0.00 58 1005.6
20190420005957 70 180 1.0 1.0 0.00 0.00 0.00 58 1005.7
20190420005824 70 180 1.0 1.0 0.00 0.00 0.00 58 1005.7
20190420005329 70 180 0.0 2.0 0.00 0.00 0.00 57 1005.7
20190420005224 70 180 0.0 2.0 0.00 0.00 0.00 57 1005.7
20190420005046 71 180 0.0 2.0 0.00 0.00 0.00 57 1005.9
20190420004921 71 180 0.0 2.0 0.00 0.00 0.00 57 1005.9
20190420004741 72 180 1.0 2.0 0.00 0.00 0.00 56 1006.0
20190420004734 72 0 0.0 2.0 0.00 0.00 0.00 57 1006.2
20190420004640 72 180 1.0 2.0 0.00 0.00 0.00 56 1006.0
20190420004632 72 0 0.0 2.0 0.00 0.00 0.00 57 1006.2
20190420004622 72 189 1.0 2.0 0.00 0.00 0.00 57 1006.0
20190420004620 71 225 0.0 1.0 0.00 0.00 0.00 59 1006.4
20190420004538 72 180 1.0 2.0 0.00 0.00 0.00 56 1006.0
20190420004529 72 0 0.0 2.0 0.00 0.00 0.00 57 1006.2
20190420004518 71 225 0.0 1.0 0.00 0.00 0.00 59 1006.4
20190420004446 70 225 1.0 5.0 0.00 0.00 0.00 60 1006.4
20190420004437 72 180 1.0 2.0 0.00 0.00 0.00 56 1006.0
20190420004416 69 272 3.0 4.0 0.00 0.00 0.00 61 1006.5
20190420004357 72 0 0.0 2.0 0.00 0.00 0.00 57 1006.2
20190420004345 70 225 1.0 5.0 0.00 0.00 0.00 60 1006.4
20190420004324 72 0 0.0 2.0 0.00 0.00 0.00 57 1006.2
20190420004318 72 180 1.0 2.0 0.00 0.00 0.00 56 1006.0
20190420004312 71 225 0.0 1.0 0.00 0.00 0.00 59 1006.4
20190420004252 72 0 0.0 2.0 0.00 0.00 0.00 57 1006.2
20190420004237 69 272 3.0 4.0 0.00 0.00 0.00 61 1006.5
20190420004221 72 0 0.0 2.0 0.00 0.00 0.00 57 1006.2
20190420004205 70 225 1.0 5.0 0.00 0.00 0.00 60 1006.4
20190420004149 72 0 0.0 2.0 0.00 0.00 0.00 57 1006.2
20190420004111 72 0 0.0 2.0 0.00 0.00 0.00 57 1006.2
20190420004059 70 180 0.0 3.0 0.00 0.00 0.00 60 1006.3
20190420004036 72 0 0.0 2.0 0.00 0.00 0.00 57 1006.2
20190420004022 71 225 0.0 1.0 0.00 0.00 0.00 59 1006.4
20190420003955 72 0 0.0 2.0 0.00 0.00 0.00 57 1006.2
20190420003911 72 0 0.0 2.0 0.00 0.00 0.00 57 1006.2
20190420003909 69 272 3.0 4.0 0.00 0.00 0.00 61 1006.5
20190420003834 72 0 0.0 2.0 0.00 0.00 0.00 57 1006.2
20190420003756 72 0 0.0 2.0 0.00 0.00 0.00 57 1006.2
20190420003716 72 0 0.0 2.0 0.00 0.00 0.00 57 1006.2
20190420003714 69 272 3.0 4.0 0.00 0.00 0.00 61 1006.5
20190420003633 72 0 0.0 2.0 0.00 0.00 0.00 57 1006.2
20190420003545 72 0 0.0 2.0 0.00 0.00 0.00 57 1006.2
20190420003454 71 225 0.0 1.0 0.00 0.00 0.00 59 1006.4
20190420003415 72 0 0.0 2.0 0.00 0.00 0.00 57 1006.2
20190420003400 70 225 1.0 5.0 0.00 0.00 0.00 60 1006.4
20190420003303 71 225 0.0 1.0 0.00 0.00 0.00 59 1006.4
20190420003230 70 225 1.0 5.0 0.00 0.00 0.00 60 1006.4
20190420003158 69 272 3.0 4.0 0.00 0.00 0.00 61 1006.5
20190420003124 69 272 3.0 4.0 0.00 0.00 0.00 61 1006.5
20190420003050 71 225 0.0 1.0 0.00 0.00 0.00 59 1006.4
20190420003013 71 225 0.0 1.0 0.00 0.00 0.00 59 1006.4
20190420002934 71 225 0.0 1.0 0.00 0.00 0.00 59 1006.4
20190420002855 71 225 0.0 1.0 0.00 0.00 0.00 59 1006.4
20190420002814 70 180 0.0 3.0 0.00 0.00 0.00 60 1006.3
20190420002731 71 225 0.0 1.0 0.00 0.00 0.00 59 1006.4
20190420002645 69 272 3.0 4.0 0.00 0.00 0.00 61 1006.5
20190420002558 70 180 0.0 3.0 0.00 0.00 0.00 60 1006.3
20190420002506 70 225 1.0 5.0 0.00 0.00 0.00 60 1006.4
20190420002412 71 225 0.0 1.0 0.00 0.00 0.00 59 1006.4
20190420002315 69 272 3.0 4.0 0.00 0.00 0.00 61 1006.5
20190420002217 70 180 0.0 3.0 0.00 0.00 0.00 60 1006.3
20190420002213 71 202 3.0 4.0 0.00 0.00 0.00 58 1006.2
20190420002115 70 180 0.0 3.0 0.00 0.00 0.00 60 1006.3
20190420002010 70 180 0.0 3.0 0.00 0.00 0.00 60 1006.3
20190420001903 71 225 0.0 1.0 0.00 0.00 0.00 59 1006.4
20190420001755 70 180 0.0 3.0 0.00 0.00 0.00 60 1006.3
20190420001642 70 180 0.0 3.0 0.00 0.00 0.00 60 1006.3
20190420001609 71 225 0.0 1.0 0.00 0.00 0.00 59 1006.4
20190420001527 70 180 0.0 3.0 0.00 0.00 0.00 60 1006.3
20190420001408 69 272 3.0 4.0 0.00 0.00 0.00 61 1006.5
20190420001309 70 180 0.0 3.0 0.00 0.00 0.00 60 1006.3
20190420001247 70 225 1.0 5.0 0.00 0.00 0.00 60 1006.4
20190420001122 69 272 3.0 4.0 0.00 0.00 0.00 61 1006.5
20190420001008 70 225 1.0 5.0 0.00 0.00 0.00 60 1006.4
20190420000954 69 272 3.0 4.0 0.00 0.00 0.00 61 1006.5
20190420000822 69 272 3.0 4.0 0.00 0.00 0.00 61 1006.5
20190420000645 69 272 3.0 4.0 0.00 0.00 0.00 61 1006.5
20190420000506 69 272 3.0 4.0 0.00 0.00 0.00 61 1006.5
20190420000406 69 204 2.0 4.0 0.00 0.00 0.00 61 1006.6
20190420000325 69 272 3.0 4.0 0.00 0.00 0.00 61 1006.5
20190420000105 69 272 3.0 4.0 0.00 0.00 0.00 61 1006.5
20190419235839 69 252 2.0 6.0 0.00 0.00 0.00 61 1006.6
20190419235802 69 252 2.0 6.0 0.00 0.00 0.00 61 1006.6
20190419235503 69 245 3.0 8.0 0.00 0.00 0.00 61 1006.6
20190419234559 69 315 5.0 8.0 0.00 0.00 0.00 60 1006.7
20190419234258 69 202 3.0 10.0 0.00 0.00 0.00 60 1006.6
20190419233656 69 276 6.0 8.0 0.00 0.00 0.00 60 1006.8
20190419233353 69 247 5.0 8.0 0.00 0.00 0.00 59 1006.8
20190419233142 69 274 3.0 6.0 0.00 0.00 0.00 58 1006.8
20190419233109 69 274 3.0 6.0 0.00 0.00 0.00 58 1006.8
20190419233035 70 254 3.0 7.0 0.00 0.00 0.00 56 1006.8
20190419233001 69 274 3.0 6.0 0.00 0.00 0.00 58 1006.8
20190419232925 70 263 5.0 11.0 0.00 0.00 0.00 57 1006.7
20190419232847 70 254 3.0 7.0 0.00 0.00 0.00 56 1006.8
20190419232808 69 274 3.0 6.0 0.00 0.00 0.00 58 1006.8
20190419232751 69 270 6.0 9.0 0.00 0.00 0.00 59 1006.7
20190419232727 70 263 5.0 11.0 0.00 0.00 0.00 57 1006.7
20190419232646 70 254 3.0 7.0 0.00 0.00 0.00 56 1006.8
20190419232602 71 252 5.0 8.0 0.00 0.00 0.00 56 1006.7
20190419232518 70 263 5.0 11.0 0.00 0.00 0.00 57 1006.7
20190419232450 69 274 3.0 6.0 0.00 0.00 0.00 58 1006.8
20190419232433 70 263 5.0 11.0 0.00 0.00 0.00 57 1006.7
20190419232346 70 263 5.0 11.0 0.00 0.00 0.00 57 1006.7
20190419232258 71 252 5.0 8.0 0.00 0.00 0.00 56 1006.7
20190419232208 70 263 5.0 11.0 0.00 0.00 0.00 57 1006.7
20190419232116 70 263 5.0 11.0 0.00 0.00 0.00 57 1006.7
20190419232022 70 254 3.0 7.0 0.00 0.00 0.00 56 1006.8
20190419231926 70 263 5.0 11.0 0.00 0.00 0.00 57 1006.7
20190419231849 69 267 5.0 11.0 0.00 0.00 0.00 58 1006.8
20190419231829 70 263 5.0 11.0 0.00 0.00 0.00 57 1006.7
20190419231728 70 254 3.0 7.0 0.00 0.00 0.00 56 1006.8
20190419231626 71 252 5.0 8.0 0.00 0.00 0.00 56 1006.7
20190419231546 70 263 5.0 11.0 0.00 0.00 0.00 57 1006.7
20190419231521 70 254 3.0 7.0 0.00 0.00 0.00 56 1006.8
20190419231414 70 254 3.0 7.0 0.00 0.00 0.00 56 1006.8
20190419231305 70 254 3.0 7.0 0.00 0.00 0.00 56 1006.8
20190419231247 70 270 6.0 8.0 0.00 0.00 0.00 56 1006.7
20190419231154 70 254 3.0 7.0 0.00 0.00 0.00 56 1006.8
20190419231038 71 252 5.0 8.0 0.00 0.00 0.00 56 1006.7
20190419230946 70 254 3.0 7.0 0.00 0.00 0.00 56 1006.8
20190419230922 71 252 5.0 8.0 0.00 0.00 0.00 56 1006.7
20190419230801 71 252 5.0 8.0 0.00 0.00 0.00 56 1006.7
20190419230645 71 263 5.0 7.0 0.00 0.00 0.00 56 1006.8
20190419230637 71 252 5.0 8.0 0.00 0.00 0.00 56 1006.7
20190419230342 71 252 5.0 8.0 0.00 0.00 0.00 56 1006.7
20190419230043 71 238 4.0 7.0 0.00 0.00 0.00 55 1006.8
20190419225442 72 258 6.0 10.0 0.00 0.00 0.00 54 1006.8
20190419225139 72 265 10.0 13.0 0.00 0.00 0.00 54 1006.8
20190419224838 73 247 7.0 12.0 0.00 0.00 0.00 53 1006.8
20190419224537 73 245 7.0 16.0 0.00 0.00 0.00 53 1006.8
20190419224236 74 272 10.0 16.0 0.00 0.00 0.00 52 1007.0
20190419223935 75 265 6.0 13.0 0.00 0.00 0.00 51 1007.1
20190419223634 76 245 10.0 10.0 0.00 0.00 0.00 51 1006.9
20190419223332 76 218 3.0 12.0 0.00 0.00 0.00 51 1006.9
20190419222729 77 247 6.0 9.0 0.00 0.00 0.00 50 1006.8
20190419222429 77 217 5.0 6.0 0.00 0.00 0.00 50 1006.9
20190419222128 78 222 6.0 7.0 0.00 0.00 0.00 50 1006.8
20190419221827 78 238 5.0 9.0 0.00 0.00 0.00 49 1006.8
20190419221524 78 230 9.0 9.0 0.00 0.00 0.00 49 1006.8
20190419221225 78 258 6.0 8.0 0.00 0.00 0.00 49 1006.8
20190419220923 78 189 3.0 8.0 0.00 0.00 0.00 49 1006.8
20190419220622 79 237 6.0 7.0 0.00 0.00 0.00 49 1006.9
20190419220320 79 245 6.0 12.0 0.00 0.00 0.00 49 1007.1
20190419220021 79 254 11.0 12.0 0.00 0.00 0.00 49 1007.0
20190419215718 79 216 2.0 9.0 0.00 0.00 0.00 48 1007.1
20190419215419 79 249 6.0 9.0 0.00 0.00 0.00 48 1007.2
20190419215115 79 256 5.0 8.0 0.00 0.00 0.00 47 1007.2
20190419214816 79 261 5.0 8.0 0.00 0.00 0.00 47 1007.3
20190419214515 79 272 6.0 7.0 0.00 0.00 0.00 47 1007.1
20190419214213 79 261 6.0 9.0 0.00 0.00 0.00 47 1007.1
20190419213613 79 256 7.0 16.0 0.00 0.00 0.00 48 1007.2
20190419213310 79 229 7.0 10.0 0.00 0.00 0.00 48 1007.2
20190419213009 79 254 6.0 8.0 0.00 0.00 0.00 48 1007.2
20190419212708 79 267 5.0 10.0 0.00 0.00 0.00 47 1007.2
20190419212407 79 256 7.0 9.0 0.00 0.00 0.00 47 1007.2
20190419212105 79 261 7.0 15.0 0.00 0.00 0.00 46 1007.2
20190419211805 80 276 10.0 15.0 0.00 0.00 0.00 45 1007.1
20190419211503 80 270 6.0 9.0 0.00 0.00 0.00 45 1007.3
20190419211203 80 254 6.0 14.0 0.00 0.00 0.00 45 1007.2
20190419210900 80 279 9.0 9.0 0.00 0.00 0.00 46 1007.1
20190419210300 79 165 3.0 9.0 0.00 0.00 0.00 46 1007.2
20190419205959 79 258 5.0 9.0 0.00 0.00 0.00 46 1007.3
20190419205354 79 261 4.0 9.0 0.00 0.00 0.00 45 1007.4
20190419205055 79 225 2.0 8.0 0.00 0.00 0.00 46 1007.4
20190419204453 79 247 3.0 8.0 0.00 0.00 0.00 46 1007.5
20190419204152 79 243 5.0 10.0 0.00 0.00 0.00 46 1007.4
20190419203851 80 261 6.0 8.0 0.00 0.00 0.00 46 1007.4
20190419203550 80 247 4.0 9.0 0.00 0.00 0.00 46 1007.3
20190419202946 80 261 7.0 8.0 0.00 0.00 0.00 45 1007.3
20190419202345 80 272 6.0 8.0 0.00 0.00 0.00 45 1007.3
20190419202044 80 272 8.0 8.0 0.00 0.00 0.00 45 1007.3
20190419201743 81 256 5.0 8.0 0.00 0.00 0.00 46 1007.4
20190419201440 81 270 6.0 9.0 0.00 0.00 0.00 46 1007.2
20190419201139 81 258 8.0 8.0 0.00 0.00 0.00 46 1007.2
20190419200840 81 235 4.0 11.0 0.00 0.00 0.00 46 1007.3
20190419200537 81 270 10.0 10.0 0.00 0.00 0.00 46 1007.2
20190419200237 81 254 4.0 9.0 0.00 0.00 0.00 45 1007.3
20190419195937 81 256 4.0 7.0 0.00 0.00 0.00 45 1007.4
20190419195635 81 225 3.0 7.0 0.00 0.00 0.00 45 1007.4
20190419195334 80 236 3.0 8.0 0.00 0.00 0.00 46 1007.5
20190419195033 80 247 3.0 8.0 0.00 0.00 0.00 45 1007.4
20190419194429 81 240 6.0 10.0 0.00 0.00 0.00 45 1007.3
20190419194130 81 306 7.0 9.0 0.00 0.00 0.00 47 1007.3
20190419193526 81 270 7.0 7.0 0.00 0.00 0.00 47 1007.5
20190419193226 81 267 4.0 6.0 0.00 0.00 0.00 48 1007.4
20190419192926 81 231 2.0 3.0 0.00 0.00 0.00 49 1007.7
20190419192624 80 315 0.0 4.0 0.00 0.00 0.00 49 1007.7
20190419192020 80 258 4.0 6.0 0.00 0.00 0.00 50 1007.8
20190419191721 80 272 5.0 6.0 0.00 0.00 0.00 51 1007.9
20190419191119 79 225 1.0 3.0 0.00 0.00 0.00 53 1007.8
20190419190816 78 195 1.0 3.0 0.00 0.00 0.00 54 1008.0
20190419190515 77 225 1.0 3.0 0.00 0.00 0.00 54 1008.0
20190419190215 76 189 2.0 5.0 0.00 0.00 0.00 55 1008.0
20190419185914 76 225 0.0 4.0 0.00 0.00 0.00 57 1008.1
20190419185615 75 225 2.0 5.0 0.00 0.00 0.00 56 1008.0
20190419185613 75 225 2.0 5.0 0.00 0.00 0.00 56 1008.0
20190419185312 75 238 1.0 4.0 0.00 0.00 0.00 58 1008.1
20190419184409 74 281 5.0 5.0 0.00 0.00 0.00 58 1008.0
20190419184108 73 247 3.0 7.0 0.00 0.00 0.00 58 1008.0
20190419183807 73 270 4.0 5.0 0.00 0.00 0.00 60 1008.2
20190419183506 73 243 1.0 5.0 0.00 0.00 0.00 61 1008.2
20190419183205 72 265 5.0 6.0 0.00 0.00 0.00 61 1008.5
20190419182903 72 267 4.0 7.0 0.00 0.00 0.00 61 1008.5
20190419182901 72 267 4.0 7.0 0.00 0.00 0.00 61 1008.5
20190419182600 72 252 3.0 7.0 0.00 0.00 0.00 61 1008.7
20190419182301 71 270 5.0 7.0 0.00 0.00 0.00 62 1008.8
20190419181958 71 270 5.0 7.0 0.00 0.00 0.00 63 1008.7
20190419181659 70 276 6.0 6.0 0.00 0.00 0.00 64 1008.8
20190419181358 70 276 5.0 6.0 0.00 0.00 0.00 64 1008.8
20190419181056 70 238 4.0 7.0 0.00 0.00 0.00 65 1008.8
20190419180754 69 238 3.0 7.0 0.00 0.00 0.00 65 1008.8
20190419180455 69 265 4.0 7.0 0.00 0.00 0.00 65 1008.8
20190419180153 69 265 4.0 6.0 0.00 0.00 0.00 65 1008.9
20190419175852 69 265 6.0 11.0 0.00 0.00 0.00 65 1008.8
20190419175250 69 254 4.0 7.0 0.00 0.00 0.00 65 1008.8
20190419175248 69 254 4.0 7.0 0.00 0.00 0.00 65 1008.8
20190419174949 69 256 3.0 7.0 0.00 0.00 0.00 65 1008.9
20190419174345 68 270 5.0 8.0 0.00 0.00 0.00 66 1008.7
20190419174046 68 258 3.0 9.0 0.00 0.00 0.00 66 1008.7
20190419173743 68 272 6.0 9.0 0.00 0.00 0.00 67 1008.7
20190419172540 68 272 4.0 6.0 0.00 0.00 0.00 67 1008.7
20190419172239 68 263 5.0 9.0 0.00 0.00 0.00 67 1008.7
20190419171938 68 258 4.0 7.0 0.00 0.00 0.00 68 1008.6
20190419171637 67 292 6.0 7.0 0.00 0.00 0.00 68 1008.6
20190419171335 67 270 6.0 7.0 0.00 0.00 0.00 68 1008.6
20190419171033 67 265 5.0 9.0 0.00 0.00 0.00 68 1008.7
20190419170432 67 274 7.0 9.0 0.00 0.00 0.00 68 1008.7
20190419170130 67 267 6.0 6.0 0.00 0.00 0.00 68 1008.7
20190419165527 67 270 5.0 10.0 0.00 0.00 0.00 68 1008.6
20190419165226 67 254 4.0 10.0 0.00 0.00 0.00 69 1008.6
20190419164925 67 272 6.0 8.0 0.00 0.00 0.00 69 1008.6
20190419164324 66 256 4.0 9.0 0.00 0.00 0.00 70 1008.7
20190419164024 66 267 4.0 9.0 0.00 0.00 0.00 70 1008.7
20190419163420 65 252 5.0 6.0 0.00 0.00 0.00 71 1008.7
20190419163120 65 267 5.0 8.0 0.00 0.00 0.00 71 1008.5
20190419162817 65 270 4.0 9.0 0.00 0.00 0.00 71 1008.4
20190419161916 64 256 4.0 8.0 0.00 0.00 0.00 72 1008.6
20190419161613 64 272 5.0 8.0 0.00 0.00 0.00 72 1008.6
20190419161313 64 270 5.0 8.0 0.00 0.00 0.00 72 1008.6
20190419161011 64 270 5.0 9.0 0.00 0.00 0.00 72 1008.8
20190419160712 63 272 7.0 9.0 0.00 0.00 0.00 72 1008.7
20190419160410 63 270 6.0 9.0 0.00 0.00 0.00 72 1008.7
20190419160111 63 267 4.0 7.0 0.00 0.00 0.00 72 1008.5
20190419155809 63 274 7.0 9.0 0.00 0.00 0.00 72 1008.7
20190419155505 63 261 3.0 7.0 0.00 0.00 0.00 73 1008.6
20190419155205 63 265 3.0 9.0 0.00 0.00 0.00 73 1008.6
20190419154904 64 265 6.0 11.0 0.00 0.00 0.00 73 1008.7
20190419154603 64 270 8.0 8.0 0.00 0.00 0.00 74 1008.9
20190419154302 63 283 6.0 7.0 0.00 0.00 0.00 75 1008.7
20190419154000 63 261 3.0 7.0 0.00 0.00 0.00 76 1008.8
20190419153700 62 252 2.0 4.0 0.00 0.00 0.00 77 1008.8
20190419153359 61 240 3.0 3.0 0.00 0.00 0.00 78 1008.9
20190419153058 60 252 2.0 4.0 0.00 0.00 0.00 78 1008.8
20190419152757 60 267 3.0 4.0 0.00 0.00 0.00 78 1008.7
20190419152455 59 270 4.0 5.0 0.00 0.00 0.00 78 1008.7
20190419151852 58 270 3.0 3.0 0.00 0.00 0.00 79 1008.7
20190419151553 58 263 2.0 3.0 0.00 0.00 0.00 79 1008.8
20190419151251 58 225 1.0 2.0 0.00 0.00 0.00 79 1008.8
20190419150647 57 225 0.0 1.0 0.00 0.00 0.00 79 1008.8
20190419150346 57 180 0.0 2.0 0.00 0.00 0.00 79 1008.8
20190419150047 57 112 2.0 3.0 0.00 0.00 0.00 79 1008.8
20190419145746 56 123 2.0 3.0 0.00 0.00 0.00 80 1008.8
20190419145142 56 105 3.0 3.0 0.00 0.00 0.00 80 1008.7
20190419144842 55 90 3.0 3.0 0.00 0.00 0.00 81 1008.6
20190419144542 55 90 2.0 3.0 0.00 0.00 0.00 81 1008.4
20190419144240 55 90 2.0 4.0 0.00 0.00 0.00 82 1008.4
20190419143639 54 90 5.0 5.0 0.00 0.00 0.00 82 1008.6
20190419143034 54 90 3.0 4.0 0.00 0.00 0.00 82 1008.6
20190419142735 53 90 4.0 5.0 0.00 0.00 0.00 82 1008.5
20190419142434 53 83 3.0 4.0 0.00 0.00 0.00 83 1008.5
20190419142131 53 83 3.0 4.0 0.00 0.00 0.00 82 1008.6
20190419141832 53 90 3.0 4.0 0.00 0.00 0.00 82 1008.4
20190419141531 53 90 3.0 3.0 0.00 0.00 0.00 82 1008.4
20190419141228 53 90 3.0 3.0 0.00 0.00 0.00 81 1008.4
20190419140928 53 90 1.0 4.0 0.00 0.00 0.00 80 1008.4
20190419140627 53 90 4.0 4.0 0.00 0.00 0.00 79 1008.4
20190419140326 53 90 2.0 3.0 0.00 0.00 0.00 80 1008.3
20190419140025 53 90 1.0 2.0 0.00 0.00 0.00 80 1008.4
20190419135723 53 90 1.0 3.0 0.00 0.00 0.00 81 1008.2
20190419135421 53 90 2.0 2.0 0.00 0.00 0.00 82 1008.3
20190419135121 53 90 2.0 2.0 0.00 0.00 0.00 82 1008.3
20190419134821 53 90 1.0 4.0 0.00 0.00 0.00 82 1008.3
20190419134519 52 128 2.0 4.0 0.00 0.00 0.00 82 1008.3
20190419134218 52 87 3.0 3.0 0.00 0.00 0.00 83 1008.2
20190419133918 52 90 2.0 4.0 0.00 0.00 0.00 83 1008.3
20190419133616 52 54 2.0 4.0 0.00 0.00 0.00 84 1008.2
20190419133012 52 85 4.0 5.0 0.00 0.00 0.00 85 1008.2
20190419132711 52 81 3.0 5.0 0.00 0.00 0.00 86 1008.1
20190419132412 52 90 4.0 5.0 0.00 0.00 0.00 86 1008.2
20190419132109 52 85 3.0 5.0 0.00 0.00 0.00 86 1008.1
20190419131808 52 90 4.0 5.0 0.00 0.00 0.00 86 1008.1
20190419131507 52 90 4.0 6.0 0.00 0.00 0.00 85 1008.0
20190419131209 52 87 5.0 6.0 0.00 0.00 0.00 86 1007.9
20190419131206 52 87 5.0 6.0 0.00 0.00 0.00 86 1007.9
20190419130907 52 87 5.0 5.0 0.00 0.00 0.00 86 1008.1
20190419130603 52 78 5.0 6.0 0.00 0.00 0.00 86 1007.9
20190419130304 52 87 4.0 6.0 0.00 0.00 0.00 86 1007.9
20190419130003 52 83 4.0 7.0 0.00 0.00 0.00 86 1007.8
20190419125401 52 81 5.0 6.0 0.00 0.00 0.00 86 1007.8
20190419125058 52 81 5.0 7.0 0.00 0.00 0.00 86 1007.8
20190419124757 52 83 5.0 7.0 0.00 0.00 0.00 87 1007.9
20190419124456 52 85 5.0 6.0 0.00 0.00 0.00 87 1007.9
20190419124157 52 87 5.0 6.0 0.00 0.00 0.00 87 1008.0
20190419123855 52 87 6.0 6.0 0.00 0.00 0.00 87 1008.0
20190419123554 52 92 4.0 5.0 0.00 0.00 0.00 88 1008.0
20190419123251 52 90 5.0 6.0 0.00 0.00 0.00 87 1008.1
20190419122649 52 87 5.0 7.0 0.00 0.00 0.00 85 1008.1
20190419122350 52 90 4.0 6.0 0.00 0.00 0.00 84 1008.3
20190419122049 52 90 4.0 6.0 0.00 0.00 0.00 85 1008.4
20190419121445 52 83 5.0 6.0 0.00 0.00 0.00 86 1008.3
20190419121143 52 90 6.0 6.0 0.00 0.00 0.00 87 1008.2
20190419120846 52 90 5.0 7.0 0.00 0.00 0.00 87 1008.2
20190419120544 52 85 4.0 6.0 0.00 0.00 0.00 89 1008.3
20190419120242 52 65 4.0 7.0 0.00 0.00 0.00 89 1008.5
20190419115941 52 90 4.0 8.0 0.00 0.00 0.00 90 1008.4
20190419115641 52 81 7.0 8.0 0.00 0.00 0.00 90 1008.5
20190419115338 52 90 8.0 8.0 0.00 0.00 0.00 89 1008.7
20190419115036 52 90 6.0 6.0 0.00 0.00 0.00 88 1008.6
20190419114736 52 90 4.0 6.0 0.00 0.00 0.00 88 1008.6
20190419114134 52 90 4.0 5.0 0.00 0.00 0.00 88 1008.7
20190419113831 52 94 4.0 5.0 0.00 0.00 0.00 88 1008.7
20190419113532 52 90 4.0 4.0 0.00 0.00 0.00 88 1008.8
20190419113231 52 87 4.0 6.0 0.00 0.00 0.00 88 1008.8
20190419112930 52 85 3.0 6.0 0.00 0.00 0.00 90 1008.8
20190419112627 52 90 3.0 6.0 0.00 0.00 0.00 89 1008.9
20190419111725 52 96 5.0 8.0 0.00 0.00 0.00 89 1008.9
20190419111422 52 94 7.0 8.0 0.00 0.00 0.00 88 1009.1
20190419111122 51 90 6.0 6.0 0.00 0.00 0.00 88 1009.2
20190419110820 51 83 4.0 5.0 0.00 0.00 0.00 88 1009.4
20190419110521 51 81 3.0 4.0 0.00 0.00 0.00 88 1009.4
20190419110218 51 94 3.0 3.0 0.00 0.00 0.00 88 1009.4
20190419105917 51 90 3.0 5.0 0.00 0.00 0.00 88 1009.3
20190419105616 51 83 4.0 4.0 0.00 0.00 0.00 88 1009.3
20190419105316 51 74 3.0 3.0 0.00 0.00 0.00 88 1009.4
20190419104714 51 76 2.0 3.0 0.00 0.00 0.00 87 1009.5
20190419103809 51 128 2.0 3.0 0.00 0.00 0.00 86 1009.6
20190419103511 51 135 1.0 2.0 0.00 0.00 0.00 86 1009.6
20190419103209 51 112 2.0 2.0 0.00 0.00 0.00 86 1009.8
20190419102906 51 180 1.0 1.0 0.00 0.00 0.00 86 1009.8
20190419102605 51 180 1.0 2.0 0.00 0.00 0.00 86 1009.8
20190419102305 51 90 2.0 2.0 0.00 0.00 0.00 86 1009.8
20190419102003 51 15 2.0 3.0 0.00 0.00 0.00 86 1009.8
20190419101703 51 31 1.0 2.0 0.00 0.00 0.00 86 1009.8
20190419101402 51 45 1.0 3.0 0.00 0.00 0.00 85 1009.8
20190419101101 51 0 2.0 3.0 0.00 0.00 0.00 85 1010.1
20190419100809 52 337 1.0 1.0 0.00 0.00 0.00 84
20190419100800 52 337 1.0 1.0 0.00 0.00 0.00 84 1010.2
20190419100156 52 337 1.0 2.0 0.00 0.00 0.00 84 1010.1
20190419095858 52 337 1.0 1.0 0.00 0.00 0.00 83 1010.1
20190419095254 52 337 0.0 1.0 0.00 0.00 0.00 83 1010.2
20190419094953 52 337 0.0 1.0 0.00 0.00 0.00 83 1010.0
20190419094351 53 225 0.0 0.0 0.00 0.00 0.00 82 1010.2
20190419094048 53 225 0.0 0.0 0.00 0.00 0.00 83 1010.2
20190419093748 53 225 0.0 0.0 0.00 0.00 0.00 83 1010.3
20190419093447 53 225 0.0 5.0 0.00 0.00 0.00 83 1010.2
20190419093146 53 272 4.0 5.0 0.00 0.00 0.00 83 1010.2
20190419092844 53 270 3.0 5.0 0.00 0.00 0.00 83 1010.1
20190419092544 53 270 2.0 7.0 0.00 0.00 0.00 83 1010.2
20190419092241 53 270 5.0 5.0 0.00 0.00 0.00 82 1010.3
20190419091940 53 292 5.0 5.0 0.00 0.00 0.00 82 1010.3
20190419091639 54 281 5.0 6.0 0.00 0.00 0.00 82 1010.4
20190419091338 54 272 6.0 7.0 0.00 0.00 0.00 82 1010.5
20190419090738 53 270 5.0 8.0 0.00 0.00 0.00 81 1010.5
20190419090135 53 270 5.0 11.0 0.00 0.00 0.00 80 1010.5
20190419085832 53 288 11.0 11.0 0.00 0.00 0.00 79 1010.5
20190419085531 53 272 5.0 6.0 0.00 0.00 0.00 78 1010.5
20190419084929 53 270 4.0 4.0 0.00 0.00 0.00 77 1010.4
20190419084628 53 236 1.0 3.0 0.00 0.00 0.00 77 1010.5
20190419084329 54 231 2.0 2.0 0.00 0.00 0.00 76 1010.4
20190419084026 54 225 0.0 2.0 0.00 0.00 0.00 76 1010.3
20190419083725 54 225 0.0 1.0 0.00 0.00 0.00 76 1010.4
20190419083424 54 247 0.0 1.0 0.00 0.00 0.00 76 1010.3
20190419083124 54 180 0.0 1.0 0.00 0.00 0.00 76 1010.3
20190419083122 54 180 0.0 1.0 0.00 0.00 0.00 76 1010.3
20190419082821 54 180 1.0 1.0 0.00 0.00 0.00 75 1010.3
20190419082219 54 180 0.0 1.0 0.00 0.00 0.00 75 1010.5
20190419081920 55 180 1.0 1.0 0.00 0.00 0.00 74 1010.5
20190419081618 55 180 1.0 1.0 0.00 0.00 0.00 74 1010.5
20190419081316 55 180 1.0 1.0 0.00 0.00 0.00 74 1010.5
20190419081016 55 180 0.0 1.0 0.00 0.00 0.00 73 1010.7
20190419080714 55 180 1.0 1.0 0.00 0.00 0.00 72 1010.5
20190419080415 56 225 0.0 0.0 0.00 0.00 0.00 72 1010.6
20190419075810 56 225 1.0 2.0 0.00 0.00 0.00 71 1010.7
20190419075509 57 195 1.0 2.0 0.00 0.00 0.00 71 1010.7
20190419075208 57 225 1.0 3.0 0.00 0.00 0.00 71 1010.8
20190419074910 57 184 2.0 3.0 0.00 0.00 0.00 70 1010.9
20190419073102 58 252 2.0 5.0 0.00 0.00 0.00 68 1010.8
20190419072759 58 270 4.0 4.0 0.00 0.00 0.00 68 1010.8
20190419072500 59 270 3.0 3.0 0.00 0.00 0.00 67 1010.8
20190419072157 59 297 3.0 3.0 0.00 0.00 0.00 67 1010.7
20190419071557 59 225 0.0 2.0 0.00 0.00 0.00 66 1010.7
20190419071255 59 202 1.0 2.0 0.00 0.00 0.00 66 1010.7
20190419070652 60 0 3.0 3.0 0.00 0.00 0.00 66 1010.6
20190419070352 60 180 1.0 1.0 0.00 0.00 0.00 65 1010.5
20190419070051 60 225 1.0 1.0 0.00 0.00 0.00 65 1010.6
20190419065750 60 180 1.0 2.0 0.00 0.00 0.00 65 1010.4
20190419065449 61 135 1.0 3.0 0.00 0.00 0.00 66 1010.5
20190419065147 61 126 1.0 4.0 0.00 0.00 0.00 66 1010.4
20190419064845 61 90 3.0 4.0 0.00 0.00 0.00 66 1010.2
20190419064544 61 87 3.0 4.0 0.00 0.00 0.00 66 1010.2
20190419064243 61 45 3.0 4.0 0.00 0.00 0.00 66 1010.3
20190419063943 61 69 3.0 4.0 0.00 0.00 0.00 66 1010.1
20190419063640 61 45 3.0 5.0 0.00 0.00 0.00 66 1010.1
20190419063039 61 45 4.0 5.0 0.00 0.00 0.00 68 1010.2
20190419062739 61 45 3.0 6.0 0.00 0.00 0.00 67 1010.3
20190419062436 61 85 3.0 6.0 0.00 0.00 0.00 68 1010.4
20190419062135 61 87 4.0 6.0 0.00 0.00 0.00 67 1010.4
20190419061229 61 76 5.0 5.0 0.00 0.00 0.00 68 1010.4
20190419060624 61 67 4.0 5.0 0.00 0.00 0.00 68 1010.2
20190419060325 61 45 3.0 4.0 0.00 0.00 0.00 68 1010.5
20190419055721 61 81 6.0 6.0 0.00 0.00 0.00 69 1010.6
20190419055119 60 94 5.0 5.0 0.00 0.00 0.00 69 1010.5
20190419054818 60 65 3.0 4.0 0.00 0.00 0.00 69 1010.6
20190419054519 60 45 3.0 4.0 0.00 0.00 0.00 68 1010.6
20190419054218 60 90 3.0 4.0 0.00 0.00 0.00 69 1010.6
20190419053917 60 85 3.0 4.0 0.00 0.00 0.00 69 1010.6
20190419053615 60 87 2.0 3.0 0.00 0.00 0.00 68 1010.7
20190419053312 60 45 3.0 3.0 0.00 0.00 0.00 68 1010.6
20190419053011 60 78 3.0 4.0 0.00 0.00 0.00 69 1010.7
20190419052411 59 90 2.0 4.0 0.00 0.00 0.00 70 1010.8
20190419052108 59 45 2.0 2.0 0.00 0.00 0.00 70 1010.7
20190419051807 59 49 2.0 3.0 0.00 0.00 0.00 70 1010.8
20190419051506 59 90 2.0 3.0 0.00 0.00 0.00 70 1010.7
20190419051205 59 90 1.0 3.0 0.00 0.00 0.00 70 1010.8
20190419050903 58 85 2.0 3.0 0.00 0.00 0.00 71 1011.0
20190419050603 58 81 2.0 3.0 0.00 0.00 0.00 70 1010.9
20190419050002 58 54 2.0 3.0 0.00 0.00 0.00 69 1011.0
20190419045358 58 45 1.0 2.0 0.00 0.00 0.00 69 1011.0
20190419044756 58 346 1.0 2.0 0.00 0.00 0.00 68 1011.0
20190419044455 58 6 1.0 2.0 0.00 0.00 0.00 68 1011.0
20190419044155 58 45 1.0 2.0 0.00 0.00 0.00 68 1011.0
20190419043852 58 342 1.0 2.0 0.00 0.00 0.00 68 1010.9
20190419043553 58 270 0.0 1.0 0.00 0.00 0.00 68 1010.9
20190419043252 59 270 0.0 1.0 0.00 0.00 0.00 68 1011.0
20190419042648 59 270 0.0 1.0 0.00 0.00 0.00 68 1011.0
20190419042349 59 270 1.0 1.0 0.00 0.00 0.00 68 1011.0
20190419042046 59 270 0.0 1.0 0.00 0.00 0.00 67 1011.1
20190419041443 59 270 1.0 1.0 0.00 0.00 0.00 67 1011.0
20190419041142 59 270 0.0 1.0 0.00 0.00 0.00 67 1011.1
20190419040239 60 225 0.0 0.0 0.00 0.00 0.00 65 1011.0
20190419035938 60 225 0.0 0.0 0.00 0.00 0.00 64 1011.2
20190419035637 60 225 0.0 1.0 0.00 0.00 0.00 64 1011.2
20190419035338 60 225 1.0 1.0 0.00 0.00 0.00 64 1011.1
20190419035035 61 247 0.0 0.0 0.00 0.00 0.00 63 1011.1
20190419034734 61 247 0.0 0.0 0.00 0.00 0.00 63 1011.0
20190419034434 61 225 0.0 0.0 0.00 0.00 0.00 62 1010.9
20190419034131 61 225 0.0 0.0 0.00 0.00 0.00 61 1011.0
20190419033830 62 225 0.0 0.0 0.00 0.00 0.00 61 1010.9
20190419033529 62 270 0.0 1.0 0.00 0.00 0.00 61 1011.3
20190419033228 62 270 0.0 1.0 0.00 0.00 0.00 61 1011.2
20190419032927 62 225 0.0 0.0 0.00 0.00 0.00 60 1011.2
20190419032327 63 225 1.0 1.0 0.00 0.00 0.00 60 1011.0
20190419032024 63 225 0.0 1.0 0.00 0.00 0.00 59 1010.9
20190419031423 64 225 1.0 1.0 0.00 0.00 0.00 58 1010.8
20190419031120 64 225 0.0 1.0 0.00 0.00 0.00 58 1010.5
20190419030520 65 225 0.0 1.0 0.00 0.00 0.00 57 1010.7
20190419030219 65 225 0.0 1.0 0.00 0.00 0.00 56 1010.6
20190419025916 65 225 0.0 2.0 0.00 0.00 0.00 56 1010.7
20190419025615 66 225 0.0 2.0 0.00 0.00 0.00 56 1010.7
20190419025314 66 247 1.0 2.0 0.00 0.00 0.00 55 1010.5
20190419025015 66 231 1.0 2.0 0.00 0.00 0.00 55 1010.8
20190419024711 67 225 1.0 1.0 0.00 0.00 0.00 55 1010.7
20190419024412 67 256 1.0 2.0 0.00 0.00 0.00 54 1010.6
20190419024109 67 267 2.0 2.0 0.00 0.00 0.00 54 1010.7
20190419023808 68 270 1.0 2.0 0.00 0.00 0.00 53 1010.8
20190419023508 68 229 1.0 3.0 0.00 0.00 0.00 53 1010.7
20190419023206 69 256 1.0 2.0 0.00 0.00 0.00 53 1010.5
20190419022905 69 227 1.0 3.0 0.00 0.00 0.00 52 1010.6
20190419022606 70 247 2.0 3.0 0.00 0.00 0.00 52 1010.6
20190419022303 70 270 2.0 4.0 0.00 0.00 0.00 51 1010.4